This is the latest recevied weather packets stored in our database for station/object W3BRL. If no packets are shown the sender has not sent any weather packets the latest 10 day(s).
| Time | Temp. | Humidity | Pressure | Rain* | Wind** | Luminosity | Snow |
|---|---|---|---|---|---|---|---|
| 1777831868 | 12.78° C | 34% | 1013.4 hPa | 0 mm | - | 871 W/m² | - |
| 1777831565 | 12.22° C | 35% | 1013.6 hPa | 0 mm | - | 853 W/m² | - |
| 1777831263 | 12.78° C | 35% | 1013.5 hPa | 0 mm | - | 286 W/m² | - |
| 1777830959 | 12.78° C | 33% | 1013.6 hPa | 0 mm | - | 500 W/m² | - |
| 1777830656 | 12.78° C | 33% | 1013.8 hPa | 0 mm | - | 894 W/m² | - |
| 1777830353 | 12.78° C | 33% | 1013.8 hPa | 0 mm | - | 265 W/m² | - |
| 1777830050 | 13.33° C | 33% | 1013.8 hPa | 0 mm | - | 330 W/m² | - |
| 1777829745 | 12.78° C | 33% | 1013.9 hPa | 0 mm | - | 910 W/m² | - |
| 1777829441 | 12.22° C | 33% | 1014.1 hPa | 0 mm | - | 874 W/m² | - |
| 1777829139 | 12.22° C | 34% | 1013.9 hPa | 0 mm | - | 916 W/m² | - |
| 1777828836 | 12.22° C | 35% | 1013.9 hPa | 0 mm | - | 209 W/m² | - |
| 1777828532 | 11.67° C | 35% | 1014.1 hPa | 0 mm | - | 883 W/m² | - |
| 1777828230 | 12.22° C | 34% | 1014 hPa | 0 mm | - | 853 W/m² | - |
| 1777827926 | 12.78° C | 33% | 1014.3 hPa | 0 mm | - | 603 W/m² | - |
| 1777827624 | 12.78° C | 32% | 1014.1 hPa | 0 mm | - | 921 W/m² | - |
| 1777827321 | 12.22° C | 34% | 1014.2 hPa | 0 mm | - | 898 W/m² | - |
| 1777827017 | 11.67° C | 33% | 1014.2 hPa | 0 mm | - | 318 W/m² | - |
| 1777826714 | 12.22° C | 33% | 1014.3 hPa | 0 mm | - | 847 W/m² | - |
| 1777826411 | 11.67° C | 35% | 1014.4 hPa | 0 mm | - | 829 W/m² | - |
| 1777826108 | 11.67° C | 32% | 1014.3 hPa | 0 mm | - | 832 W/m² | - |
| 1777825805 | 11.67° C | 33% | 1014.4 hPa | 0 mm | - | 796 W/m² | - |
| 1777825502 | 11.11° C | 33% | 1014.6 hPa | 0 mm | - | 811 W/m² | - |
| 1777825200 | 11.67° C | 34% | 1014.4 hPa | 0 mm | - | 829 W/m² | - |
| 1777824896 | 11.67° C | 33% | 1014.5 hPa | 0 mm | - | 830 W/m² | - |
| 1777824592 | 11.11° C | 32% | 1014.8 hPa | 0 mm | - | 810 W/m² | - |
* Rain latest hour (hover to see other rain measurements)
** Current wind speed in m/s (hover to see current wind gust speed)